AFR42VQ LFPG-LFMN

Flight info

Callsign AFR42VQ
Flight time 1h 14m
Altitude 32000
Route LATRA DCT LAMUT DCT UTUVA DCT LERGA DCT LIQID DCT NISAR
Aircraft A320/M-SDE2E3FGIJ1RWY/HB1

Departure

Time 2026-05-06 12:36
Airport Charles de Gaulle International Airport (LFPG)

Arrival

Time 2026-05-06 13:51
Airport Nice-Côte d'Azur Airport (LFMN)
Time Latitude Longitude Altitude Speed Heading
2026-05-06 12:03 49.00743 2.57914 354 ft 0 kts 183°
2026-05-06 12:03 49.00742 2.57914 355 ft 0 kts 183°
2026-05-06 12:25 49.00749 2.57915 355 ft 4 kts 181°
2026-05-06 12:26 49.00775 2.57910 358 ft 4 kts 149°
2026-05-06 12:26 49.00787 2.57887 359 ft 2 kts 86°
2026-05-06 12:26 49.00787 2.57883 359 ft 0 kts 85°
2026-05-06 12:29 49.00791 2.57935 361 ft 11 kts 84°
2026-05-06 12:30 49.00802 2.58006 360 ft 10 kts 66°
2026-05-06 12:30 49.00832 2.58094 357 ft 9 kts 47°
2026-05-06 12:30 49.00893 2.58126 356 ft 11 kts 33°
2026-05-06 12:30 49.00916 2.58236 357 ft 11 kts 84°
2026-05-06 12:31 49.00922 2.58346 355 ft 10 kts 85°
2026-05-06 12:31 49.00927 2.58446 359 ft 9 kts 85°
2026-05-06 12:31 49.00933 2.58574 356 ft 16 kts 85°
2026-05-06 12:31 49.00942 2.58751 354 ft 17 kts 85°
2026-05-06 12:32 49.00954 2.58930 361 ft 17 kts 80°
2026-05-06 12:32 49.00985 2.59115 359 ft 19 kts 82°
2026-05-06 12:32 49.00996 2.59330 359 ft 22 kts 84°
2026-05-06 12:32 49.00984 2.59514 356 ft 17 kts 139°
2026-05-06 12:33 49.00875 2.59543 354 ft 16 kts 175°
2026-05-06 12:33 49.00769 2.59556 358 ft 15 kts 176°
2026-05-06 12:33 49.00671 2.59567 354 ft 14 kts 175°
2026-05-06 12:33 49.00572 2.59580 354 ft 16 kts 175°
2026-05-06 12:34 49.00443 2.59596 357 ft 21 kts 175°
2026-05-06 12:34 49.00306 2.59612 354 ft 19 kts 176°
2026-05-06 12:34 49.00197 2.59626 354 ft 15 kts 175°
2026-05-06 12:34 49.00095 2.59638 354 ft 14 kts 175°
2026-05-06 12:35 48.99999 2.59649 360 ft 14 kts 175°
2026-05-06 12:35 48.99907 2.59660 354 ft 13 kts 175°
2026-05-06 12:35 48.99821 2.59656 357 ft 13 kts 206°
2026-05-06 12:35 48.99800 2.59576 361 ft 0 kts 265°
2026-05-06 12:36 48.99798 2.59551 355 ft 20 kts 265°
2026-05-06 12:36 48.99763 2.58880 354 ft 102 kts 265°
2026-05-06 12:36 48.99690 2.57481 375 ft 159 kts 266°
2026-05-06 12:36 48.99594 2.55830 1137 ft 155 kts 269°
2026-05-06 12:37 48.99495 2.54191 1937 ft 156 kts 270°
2026-05-06 12:37 48.99397 2.52533 2657 ft 158 kts 269°
2026-05-06 12:37 48.99316 2.50865 3400 ft 158 kts 271°
2026-05-06 12:37 48.99233 2.49162 3903 ft 173 kts 271°
2026-05-06 12:38 48.99138 2.47215 4271 ft 196 kts 270°
2026-05-06 12:38 48.99029 2.45054 4640 ft 219 kts 269°
2026-05-06 12:38 48.98900 2.42610 5045 ft 245 kts 269°
2026-05-06 12:38 48.98754 2.39908 5687 ft 265 kts 268°
2026-05-06 12:39 48.98594 2.37077 6658 ft 272 kts 268°
2026-05-06 12:39 48.98426 2.34202 7667 ft 274 kts 267°
2026-05-06 12:39 48.98256 2.31297 8645 ft 277 kts 266°
2026-05-06 12:39 48.98088 2.28369 9692 ft 278 kts 265°
2026-05-06 12:40 48.97920 2.25405 10447 ft 289 kts 265°
2026-05-06 12:40 48.97739 2.22234 10878 ft 309 kts 265°
2026-05-06 12:40 48.97552 2.18934 11608 ft 318 kts 266°
2026-05-06 12:40 48.97348 2.15542 12360 ft 326 kts 263°
2026-05-06 12:41 48.96660 2.12237 13173 ft 333 kts 242°
2026-05-06 12:41 48.95183 2.09506 13951 ft 340 kts 220°
2026-05-06 12:41 48.93079 2.07824 14702 ft 347 kts 197°
2026-05-06 12:41 48.90667 2.07524 15457 ft 353 kts 175°
2026-05-06 12:42 48.88226 2.07951 16240 ft 355 kts 174°
2026-05-06 12:42 48.85762 2.08398 17023 ft 358 kts 173°
2026-05-06 12:42 48.83280 2.08850 17770 ft 361 kts 173°
2026-05-06 12:42 48.80777 2.09301 18480 ft 364 kts 173°
2026-05-06 12:43 48.78250 2.09750 19122 ft 367 kts 173°
2026-05-06 12:43 48.75695 2.10199 19743 ft 371 kts 173°
2026-05-06 12:43 48.73114 2.10647 20371 ft 375 kts 173°
2026-05-06 12:43 48.70507 2.11094 20988 ft 379 kts 173°
2026-05-06 12:44 48.67894 2.11852 21599 ft 383 kts 163°
2026-05-06 12:44 48.65411 2.13304 22205 ft 387 kts 153°
2026-05-06 12:44 48.62999 2.15141 22844 ft 390 kts 154°
2026-05-06 12:44 48.60598 2.16966 23523 ft 392 kts 155°
2026-05-06 12:45 48.58131 2.18831 24145 ft 391 kts 154°
2026-05-06 12:45 48.55720 2.20646 24670 ft 394 kts 154°
2026-05-06 12:45 48.50784 2.24349 25653 ft 399 kts 154°
2026-05-06 12:46 48.48263 2.26239 26170 ft 401 kts 154°
2026-05-06 12:46 48.45754 2.28117 26610 ft 405 kts 154°
2026-05-06 12:46 48.43223 2.30008 27106 ft 407 kts 153°
2026-05-06 12:46 48.40679 2.31905 27549 ft 410 kts 155°
2026-05-06 12:47 48.38115 2.33817 28019 ft 412 kts 154°
2026-05-06 12:47 48.35571 2.35715 28433 ft 416 kts 154°
2026-05-06 12:47 48.32968 2.37657 28886 ft 419 kts 154°
2026-05-06 12:47 48.30354 2.39607 29364 ft 421 kts 154°
2026-05-06 12:48 48.27642 2.41429 29852 ft 423 kts 160°
2026-05-06 12:48 48.24894 2.42900 30189 ft 427 kts 161°
2026-05-06 12:48 48.22090 2.44387 30517 ft 429 kts 161°
2026-05-06 12:48 48.19263 2.45880 30813 ft 431 kts 161°
2026-05-06 12:49 48.16442 2.47371 31227 ft 430 kts 161°
2026-05-06 12:49 48.13615 2.48866 31535 ft 432 kts 161°
2026-05-06 12:49 48.10777 2.50371 31798 ft 435 kts 160°
2026-05-06 12:49 48.07919 2.51883 31913 ft 434 kts 161°
2026-05-06 12:50 48.05121 2.53320 31930 ft 415 kts 161°
2026-05-06 12:50 48.02437 2.54650 31932 ft 401 kts 162°
2026-05-06 12:50 47.99802 2.55929 31931 ft 397 kts 162°
2026-05-06 12:51 47.94585 2.58450 31931 ft 392 kts 162°
2026-05-06 12:51 47.89393 2.60990 31929 ft 394 kts 162°
2026-05-06 12:52 47.84188 2.63541 31928 ft 393 kts 161°
2026-05-06 12:52 47.78958 2.66102 31927 ft 396 kts 162°
2026-05-06 12:53 47.73729 2.68657 31937 ft 395 kts 162°
2026-05-06 12:53 47.68503 2.71198 31932 ft 395 kts 162°
2026-05-06 12:54 47.63284 2.73741 31934 ft 394 kts 162°
2026-05-06 12:54 47.58073 2.76277 31929 ft 394 kts 162°
2026-05-06 12:55 47.52860 2.78805 31929 ft 394 kts 162°
2026-05-06 12:55 47.47646 2.81314 31919 ft 394 kts 162°
2026-05-06 12:56 47.42427 2.83819 31909 ft 394 kts 162°
2026-05-06 12:56 47.37222 2.86320 31907 ft 393 kts 162°
2026-05-06 12:57 47.32016 2.88820 31911 ft 393 kts 161°
2026-05-06 12:57 47.26822 2.91317 31910 ft 393 kts 162°
2026-05-06 12:58 47.21631 2.93802 31911 ft 392 kts 162°
2026-05-06 12:58 47.16444 2.96277 31893 ft 391 kts 162°
2026-05-06 12:59 47.11269 2.98734 31884 ft 391 kts 162°
2026-05-06 12:59 47.06040 3.00973 31901 ft 391 kts 164°
2026-05-06 13:00 47.00790 3.03066 31902 ft 391 kts 164°
2026-05-06 13:00 46.95532 3.05176 31903 ft 392 kts 164°
2026-05-06 13:01 46.90284 3.07322 31907 ft 392 kts 164°
2026-05-06 13:01 46.85036 3.09485 31902 ft 392 kts 164°
2026-05-06 13:02 46.79789 3.11636 31896 ft 392 kts 164°
2026-05-06 13:02 46.74546 3.13777 31900 ft 391 kts 164°
2026-05-06 13:03 46.69307 3.15902 31886 ft 391 kts 164°
2026-05-06 13:03 46.64055 3.18024 31874 ft 392 kts 164°
2026-05-06 13:04 46.58797 3.20158 31874 ft 392 kts 164°
2026-05-06 13:04 46.53548 3.22290 31878 ft 392 kts 164°
2026-05-06 13:05 46.48289 3.24414 31884 ft 392 kts 165°
2026-05-06 13:05 46.43038 3.26521 31880 ft 392 kts 165°
2026-05-06 13:06 46.37781 3.28635 31878 ft 392 kts 165°
2026-05-06 13:06 46.32560 3.30739 31877 ft 392 kts 165°
2026-05-06 13:07 46.27303 3.32842 31878 ft 392 kts 165°
2026-05-06 13:07 46.22043 3.34941 31876 ft 392 kts 165°
2026-05-06 13:08 46.16789 3.37035 31867 ft 392 kts 165°
2026-05-06 13:08 46.11531 3.39131 31868 ft 392 kts 166°
2026-05-06 13:09 46.06266 3.41227 31867 ft 393 kts 165°
2026-05-06 13:09 46.00991 3.43319 31871 ft 393 kts 166°
2026-05-06 13:10 45.95709 3.45401 31879 ft 394 kts 166°
2026-05-06 13:10 45.90423 3.47488 31885 ft 394 kts 166°
2026-05-06 13:11 45.85132 3.49590 31881 ft 395 kts 165°
2026-05-06 13:11 45.79851 3.51840 31884 ft 396 kts 164°
2026-05-06 13:12 45.74573 3.54160 31890 ft 397 kts 164°
2026-05-06 13:12 45.69283 3.56462 31892 ft 397 kts 165°
2026-05-06 13:13 45.63985 3.58736 31889 ft 398 kts 166°
2026-05-06 13:13 45.58680 3.61002 31894 ft 398 kts 166°
2026-05-06 13:14 45.53367 3.63263 31897 ft 398 kts 166°
2026-05-06 13:14 45.48055 3.65524 31895 ft 398 kts 166°
2026-05-06 13:15 45.42751 3.67795 31903 ft 398 kts 166°
2026-05-06 13:15 45.38343 3.69664 31905 ft 397 kts 166°
2026-05-06 13:16 45.33044 3.71912 31904 ft 397 kts 166°
2026-05-06 13:16 45.27850 3.74644 31895 ft 403 kts 154°
2026-05-06 13:16 45.25545 3.76940 31900 ft 408 kts 142°
2026-05-06 13:17 45.23023 3.80951 31900 ft 415 kts 127°
2026-05-06 13:17 45.20402 3.86737 31888 ft 416 kts 127°
2026-05-06 13:18 45.17268 3.93638 31891 ft 417 kts 127°
2026-05-06 13:18 45.14079 4.00485 31893 ft 414 kts 132°
2026-05-06 13:19 45.10402 4.06719 31880 ft 413 kts 134°
2026-05-06 13:19 45.06947 4.13244 31886 ft 417 kts 127°
2026-05-06 13:20 45.03851 4.20204 31902 ft 419 kts 126°
2026-05-06 13:20 45.00802 4.27213 31890 ft 419 kts 127°
2026-05-06 13:21 44.97761 4.34164 31897 ft 419 kts 127°
2026-05-06 13:21 44.94678 4.41144 31899 ft 419 kts 127°
2026-05-06 13:22 44.91588 4.48110 31901 ft 419 kts 127°
2026-05-06 13:22 44.88492 4.55069 31884 ft 419 kts 128°
2026-05-06 13:23 44.85385 4.62042 31892 ft 422 kts 129°
2026-05-06 13:23 44.82256 4.69056 31907 ft 423 kts 129°
2026-05-06 13:24 44.79128 4.76049 31916 ft 423 kts 129°
2026-05-06 13:24 44.75985 4.83054 31921 ft 423 kts 129°
2026-05-06 13:25 44.72847 4.90053 31921 ft 423 kts 129°
2026-05-06 13:25 44.69700 4.97038 31893 ft 423 kts 130°
2026-05-06 13:26 44.66550 5.03998 31907 ft 422 kts 130°
2026-05-06 13:26 44.63391 5.10957 31906 ft 422 kts 130°
2026-05-06 13:27 44.60233 5.17906 31912 ft 422 kts 130°
2026-05-06 13:27 44.57071 5.24848 31912 ft 422 kts 130°
2026-05-06 13:28 44.53912 5.31786 31919 ft 422 kts 130°
2026-05-06 13:28 44.50751 5.38717 31905 ft 421 kts 130°
2026-05-06 13:29 44.47588 5.45604 31910 ft 420 kts 130°
2026-05-06 13:29 44.44450 5.52421 31905 ft 419 kts 131°
2026-05-06 13:30 44.41290 5.59267 31882 ft 420 kts 130°
2026-05-06 13:30 44.39708 5.62698 31618 ft 420 kts 131°
2026-05-06 13:30 44.38124 5.66129 31378 ft 420 kts 131°
2026-05-06 13:30 44.36536 5.69559 31124 ft 420 kts 131°
2026-05-06 13:31 44.34954 5.72981 30833 ft 418 kts 131°
2026-05-06 13:31 44.33385 5.76377 30589 ft 415 kts 131°
2026-05-06 13:31 44.31821 5.79749 30339 ft 412 kts 132°
2026-05-06 13:31 44.30266 5.83095 30101 ft 410 kts 132°
2026-05-06 13:32 44.28716 5.86433 29838 ft 409 kts 132°
2026-05-06 13:32 44.27170 5.89753 29551 ft 407 kts 132°
2026-05-06 13:32 44.25628 5.93059 29230 ft 406 kts 133°
2026-05-06 13:32 44.24090 5.96352 28956 ft 405 kts 133°
2026-05-06 13:33 44.22555 5.99632 28674 ft 403 kts 133°
2026-05-06 13:33 44.21026 6.02899 28395 ft 402 kts 133°
2026-05-06 13:33 44.19502 6.06153 28123 ft 400 kts 133°
2026-05-06 13:33 44.17989 6.09382 27736 ft 395 kts 133°
2026-05-06 13:34 44.16495 6.12572 27292 ft 391 kts 134°
2026-05-06 13:34 44.15013 6.15728 26825 ft 388 kts 133°
2026-05-06 13:34 44.13533 6.18868 26355 ft 387 kts 133°
2026-05-06 13:34 44.12069 6.21982 25871 ft 381 kts 134°
2026-05-06 13:35 44.10625 6.25055 25397 ft 378 kts 134°
2026-05-06 13:35 44.09187 6.28106 24909 ft 377 kts 134°
2026-05-06 13:35 44.07745 6.31147 24410 ft 377 kts 134°
2026-05-06 13:35 44.06298 6.34192 23901 ft 377 kts 134°
2026-05-06 13:36 44.04850 6.37237 23366 ft 378 kts 133°
2026-05-06 13:36 44.03403 6.40285 22798 ft 377 kts 133°
2026-05-06 13:36 44.01965 6.43310 22289 ft 375 kts 133°
2026-05-06 13:36 44.00528 6.46341 21784 ft 375 kts 132°
2026-05-06 13:37 43.99096 6.49363 21272 ft 373 kts 131°
2026-05-06 13:37 43.97693 6.52311 20791 ft 371 kts 131°
2026-05-06 13:37 43.96272 6.55291 20281 ft 370 kts 131°
2026-05-06 13:37 43.94846 6.58275 19772 ft 370 kts 130°
2026-05-06 13:38 43.93431 6.61237 19293 ft 367 kts 129°
2026-05-06 13:38 43.92023 6.64184 18814 ft 366 kts 130°
2026-05-06 13:38 43.90619 6.67121 18333 ft 364 kts 129°
2026-05-06 13:38 43.89219 6.70047 17801 ft 363 kts 129°
2026-05-06 13:39 43.87830 6.72947 17320 ft 360 kts 129°
2026-05-06 13:39 43.86448 6.75827 16855 ft 358 kts 129°
2026-05-06 13:39 43.85072 6.78688 16396 ft 355 kts 128°
2026-05-06 13:39 43.83703 6.81526 15940 ft 353 kts 128°
2026-05-06 13:40 43.82346 6.84339 15476 ft 350 kts 128°
2026-05-06 13:40 43.80997 6.87133 15053 ft 348 kts 129°
2026-05-06 13:40 43.79674 6.89873 14623 ft 346 kts 128°
2026-05-06 13:40 43.78323 6.92673 14178 ft 345 kts 128°
2026-05-06 13:41 43.76990 6.95435 13731 ft 344 kts 128°
2026-05-06 13:41 43.75665 6.98178 13262 ft 342 kts 127°
2026-05-06 13:41 43.74354 7.00892 12818 ft 338 kts 127°
2026-05-06 13:41 43.73069 7.03552 12374 ft 336 kts 128°
2026-05-06 13:42 43.71762 7.06254 11930 ft 333 kts 127°
2026-05-06 13:42 43.70479 7.08899 11489 ft 331 kts 127°
2026-05-06 13:42 43.69202 7.11525 11149 ft 325 kts 127°
2026-05-06 13:42 43.67978 7.14040 11005 ft 314 kts 127°
2026-05-06 13:43 43.66752 7.16559 10679 ft 310 kts 127°
2026-05-06 13:43 43.65551 7.19020 10300 ft 308 kts 127°
2026-05-06 13:43 43.64372 7.21436 9888 ft 304 kts 127°
2026-05-06 13:43 43.63193 7.23847 9117 ft 302 kts 127°
2026-05-06 13:44 43.62009 7.26266 8389 ft 298 kts 127°
2026-05-06 13:44 43.60870 7.28596 7895 ft 287 kts 127°
2026-05-06 13:44 43.59767 7.30851 7450 ft 282 kts 127°
2026-05-06 13:44 43.58666 7.33096 7001 ft 283 kts 128°
2026-05-06 13:45 43.57558 7.35353 6540 ft 285 kts 127°
2026-05-06 13:45 43.55416 7.42581 5111 ft 289 kts 73°
2026-05-06 13:46 43.56406 7.44840 4972 ft 267 kts 37°
2026-05-06 13:46 43.57995 7.45836 4721 ft 244 kts 358°
2026-05-06 13:46 43.59583 7.45478 4380 ft 232 kts 332°
2026-05-06 13:46 43.60873 7.44251 4011 ft 222 kts 307°
2026-05-06 13:47 43.61712 7.42500 3641 ft 218 kts 296°
2026-05-06 13:47 43.62470 7.40683 3281 ft 219 kts 295°
2026-05-06 13:47 43.63253 7.38886 2912 ft 218 kts 299°
2026-05-06 13:47 43.64082 7.37220 2633 ft 203 kts 300°
2026-05-06 13:48 43.64872 7.35685 2372 ft 190 kts 300°
2026-05-06 13:48 43.65617 7.34251 2157 ft 176 kts 298°
2026-05-06 13:48 43.66306 7.32923 1802 ft 168 kts 297°
2026-05-06 13:48 43.66956 7.31664 1633 ft 152 kts 297°
2026-05-06 13:49 43.67546 7.30528 1466 ft 141 kts 297°
2026-05-06 13:49 43.68111 7.29417 1196 ft 142 kts 295°
2026-05-06 13:49 43.68577 7.28283 1083 ft 134 kts 285°
2026-05-06 13:49 43.68781 7.27090 865 ft 124 kts 262°
2026-05-06 13:50 43.68613 7.25954 689 ft 119 kts 245°
2026-05-06 13:50 43.68256 7.24954 483 ft 117 kts 233°
2026-05-06 13:50 43.67786 7.24068 331 ft 114 kts 227°
2026-05-06 13:50 43.67244 7.23260 175 ft 115 kts 223°
2026-05-06 13:51 43.66682 7.22478 37 ft 113 kts 222°
2026-05-06 13:51 43.66209 7.21827 22 ft 74 kts 225°
2026-05-06 13:51 43.65950 7.21469 21 ft 40 kts 224°
2026-05-06 13:51 43.65778 7.21232 23 ft 32 kts 225°
2026-05-06 13:52 43.65637 7.21022 23 ft 28 kts 245°
2026-05-06 13:52 43.65701 7.20886 21 ft 12 kts 349°
2026-05-06 13:52 43.65782 7.20866 22 ft 12 kts 349°
2026-05-06 13:52 43.65859 7.20846 21 ft 11 kts 350°
2026-05-06 13:53 43.65933 7.20828 23 ft 10 kts 352°
2026-05-06 13:53 43.65999 7.20810 22 ft 8 kts 314°
2026-05-06 13:53 43.65997 7.20738 24 ft 3 kts 258°
2026-05-06 13:53 43.65993 7.20710 21 ft 0 kts 260°